Home > Time Zones > World Clock > Weather > Oman > Seeb > Past weeks

Flag for Oman Weather past 2 weeks in Seeb, Oman

Now
84 °F

Clear.


Feels Like: 96 °F
Forecast: 83 / 94 °F
Wind: 3 mph from Southeast

Location: International Airport

Current Time: Sep 19, 2014 at 2:11:08 AM

Latest Report: Sep 19, 2014 at 12:50 AM


Visibility: 5 mi

Pressure: 29.74 "Hg

Humidity: 84%

Dew point: 79 °F

Location of SeebLocation

Historic Weather in Seeb — Graph

°F

Seeb temperature yesterday

Maximum temperature yesterday: 91 °F (at 9:50 AM)
Minimum temperature yesterday: 82 °F (at 1:50 AM)
Average temperature yesterday: 86 °F

Past Weeks' High & Low Weather Summary

 TemperatureHumidityPressure
High109 °F (Sep 4, 10:50 AM)94% (Sep 8, 1:50 AM)29.74 "Hg (Sep 8, 1:50 AM)
Low81 °F (Sep 17, 5:50 AM)10% (Sep 5, 1:50 AM)29.45 "Hg (Sep 5, 2:50 AM)
Average90 °F71%29.61 "Hg
* Reported Sep 4 12:50 AM — Sep 19 12:50 AM, Seeb, Weather by CustomWeather, © 2014

Note: Actual official high and low records may vary slightly from our data, if they occured in-between our weather recording intervals... More about our weather records

Advertising

Seeb weather history for previous 24 hours

 ConditionsComfort  
Time TempWeatherWind HumidityBarometerVisibility
12:50 AM
Sep 19
84 °FClear.3 mph84%29.74 "Hg5 mi
11:50 PM
Sep 18
84 °FClear.5 mph84%29.74 "Hg5 mi
10:50 PM84 °FClear.3 mph89%29.74 "Hg5 mi
9:50 PM86 °FClear.3 mph79%29.74 "Hg5 mi
8:50 PM88 °FClear.2 mph70%29.71 "Hg5 mi
7:50 PM88 °FPassing clouds.1 mph70%29.71 "Hg5 mi
6:50 PM86 °FPassing clouds.No wind75%29.71 "Hg5 mi
5:50 PM86 °FPassing clouds.3 mph79%29.71 "Hg5 mi
4:50 PM86 °FPassing clouds.7 mph79%29.71 "Hg5 mi
3:50 PM88 °FScattered clouds.7 mph75%29.71 "Hg5 mi
2:50 PM88 °FScattered clouds.8 mph79%29.71 "Hg5 mi
1:50 PM88 °FScattered clouds.9 mph79%29.71 "Hg5 mi
12:50 PM88 °FPassing clouds.9 mph79%29.71 "Hg5 mi
11:50 AM88 °FClear.12 mph79%29.74 "Hg5 mi
10:50 AM91 °FClear.13 mph71%29.74 "Hg5 mi
9:50 AM91 °FClear.3 mph71%29.74 "Hg5 mi
8:50 AM88 °FClear.3 mph79%29.74 "Hg5 mi
7:50 AM86 °FClear.5 mph84%29.74 "Hg4 mi
6:50 AM82 °FFog.5 mph94%29.71 "Hg3 mi
5:50 AM82 °FFog.5 mph94%29.68 "Hg3 mi
4:50 AM82 °FPassing clouds.5 mph94%29.68 "Hg4 mi
3:50 AM82 °FPassing clouds.2 mph94%29.65 "Hg4 mi
2:50 AM82 °FClear.3 mph94%29.65 "Hg5 mi
Weather by CustomWeather, © 2014

See weather overviewHow to use our weather pages